Torna al catalogo

NO-44

PCSAT

AttivoRadioamatoreLEO
NORAD 26931·PAYLOAD·🇺🇸 United States

Lanciato Sep 30, 2001 da Kodiak Launch Complex

Loading…

Prossimi Passaggi (prossime 24 ore)

TLE

AggiornatoSource: AMSAT

Epoca: Sep 13, 2026, 17:20 UTC

1 26931U 01043C   26256.72239409  .00000058  00000-0  52735-4 0  9995
2 26931  67.0528  15.2724 0005736 272.4834  87.5611 14.31983338303123

Traccia NO-44 in tempo reale con AllMySat

Download on the App Store